Wind_Speed
19 18 13 14 16 17 16 17 18 16 15 16 15 15 13 14 14 16 15 14 13 14 13 12 10 9 8 7 6 9 9 11 12 18 17 15 17 16 14 12 11 12 10
18 17 14 14 16 16 13 14 15 15 13 14 14 12 11 11 13 16 14 15 15 14 14 12 10 10 10 10 11 11 11 10 10 11 14 17 16 15 12 11 11 11 11
16 13 15 17 17 14 13 13 13 15 14 16 16 12 7 10 13 12 12 13 13 14 14 14 15 14 13 11 12 12 11 10 10 13 11 15 16 16 16 16 16 14 10
15 13 12 15 17 15 11 16 17 21 21 23 26 22 18 16 18 16 15 16 18 21 20 20 20 17 16 16 14 13 13 13 12 11 11 12 12 14 16 21 24 17 15
16 16 15 16 19 20 20 19 22 23 26 27 27 27 26 26 25 23 24 22 24 26 25 19 17 16 16 15 13 12 12 13 15 14 14 16 14 17 19 21 23 22 17
14 15 16 17 18 22 23 25 26 25 25 26 27 26 22 22 20 20 18 19 19 23 26 29 17 17 16 12 12 14 13 17 17 18 16 18 19 18 18 22 23 21 21
13 14 16 17 19 23 23 22 23 24 24 27 27 26 21 19 18 19 18 16 13 18 27 27 25 20 19 17 14 11 12 15 14 14 15 17 19 16 19 20 19 18 18
12 14 19 19 21 22 21 20 19 17 17 18 20 23 24 21 14 15 18 18 13 18 23 24 24 27 27 23 20 18 18 18 21 15 16 15 14 15 17 18 19 19 16
14 15 16 16 19 19 17 17 15 15 12 12 16 21 26 23 21 12 15 19 14 19 23 22 22 22 21 20 18 19 16 17 25 22 18 14 15 14 17 18 18 17 19
17 18 18 18 18 16 11 13 14 11 14 12 13 17 25 27 15 15 10 11 11 12 15 20 20 20 21 21 18 14 14 13 18 20 22 20 18 16 15 13 14 17 16
15 12 11 12 10 14 8 10 14 15 16 14 13 17 21 22 14 14 12 12 15 15 17 18 20 19 18 19 19 16 15 17 12 18 21 21 26 21 19 20 10 15 15
14 12 9 4 9 18 15 7 7 8 9 8 8 14 20 19 18 17 15 11 13 18 20 19 21 22 21 20 20 19 16 16 13 21 26 24 25 21 21 16 15 12 12
10 11 15 16 19 22 24 25 22 20 20 18 17 18 19 18 19 18 15 16 17 18 19 18 20 20 21 21 21 22 19 17 19 24 26 24 26 27 20 14 11 10 8
3 5 8 12 15 17 19 19 22 23 23 25 23 22 22 18 18 20 22 20 23 21 20 21 22 22 21 21 20 22 20 21 23 27 26 28 28 25 19 13 14 14 15
5 6 9 10 12 15 16 16 16 18 18 22 25 22 25 23 19 22 25 20 22 22 22 23 24 24 24 26 23 23 21 24 26 26 27 32 28 25 18 15 13 13 13
2 3 7 7 10 11 14 14 14 18 17 18 22 20 18 18 18 18 20 20 22 21 23 25 25 25 26 26 25 24 23 25 26 27 31 35 25 20 18 13 14 12 11
6 6 7 9 8 9 10 12 11 15 14 14 20 21 13 18 14 15 18 20 19 24 22 24 25 25 26 27 25 26 27 30 30 28 29 34 23 16 15 13 13 12 11
3 2 3 4 6 11 13 12 12 15 13 13 16 26 11 14 13 15 17 18 20 23 23 23 24 28 28 28 30 26 29 33 27 27 29 32 22 16 16 12 11 12 11
13 8 5 5 6 10 10 10 11 12 10 11 13 19 13 14 13 14 17 19 19 21 21 22 26 30 31 29 30 27 29 29 32 31 33 30 21 15 15 12 10 9 9
3 7 10 10 7 9 8 8 11 12 10 10 13 14 14 12 12 16 17 16 17 18 19 23 28 30 31 31 32 31 30 33 36 36 29 24 19 14 14 11 8 9 8
3 4 7 7 2 13 12 5 8 13 12 10 10 12 11 11 11 14 16 15 16 18 19 23 27 31 32 34 34 32 31 35 36 33 28 24 18 14 11 8 8 7 5
1 2 6 11 4 10 11 11 11 10 13 9 9 11 10 11 9 14 12 12 15 15 17 22 27 30 33 35 34 32 31 36 34 36 31 23 19 14 9 8 8 7 7
1 4 5 7 10 10 6 13 12 10 13 9 10 12 10 11 10 11 10 12 16 14 16 21 25 29 32 34 34 31 30 33 33 36 28 22 16 13 10 9 9 10 11
6 6 5 6 9 9 10 10 11 13 10 11 12 8 10 10 9 11 11 12 14 17 14 19 24 27 32 34 35 31 26 29 32 36 28 19 15 13 10 10 10 11 10
8 2 5 7 6 10 10 11 14 10 11 16 5 16 13 12 5 10 12 10 11 13 13 18 21 25 31 33 35 30 25 27 31 38 23 18 17 15 16 16 14 12 13
4 8 6 5 8 11 9 14 12 11 12 11 9 13 7 8 11 8 3 8 12 13 12 15 18 23 30 33 35 29 25 26 32 37 22 19 18 17 16 14 16 17 13
Wind_Direction
354 345 358 8 2 357 7 5 6 6 2 3 359 358 5 8 13 21 22 20 26 20 20 19 16 10 354 354 348 333 320 319 320 318 329 345 346 342 337 325 329 319 309
353 6 26 8 7 358 358 6 10 12 4 350 346 339 342 3 8 8 6 15 20 18 16 8 6 352 337 331 321 321 318 336 349 342 359 7 2 5 356 349 341 328 321
360 11 18 21 10 10 19 24 17 4 5 10 19 15 9 4 4 17 24 23 23 18 12 13 17 23 27 27 24 20 9 0 358 353 356 345 359 4 4 357 351 339 318
3 19 30 18 15 29 48 40 43 51 48 51 48 46 52 53 50 50 34 22 33 46 47 43 34 30 28 25 23 22 20 18 9 4 359 2 358 349 350 346 346 345 339
26 36 41 38 55 62 61 58 51 45 50 54 54 53 55 57 55 57 58 54 49 41 31 18 11 12 1 4 1 359 359 355 355 349 344 344 351 340 342 342 349 346 348
42 49 61 64 59 71 66 61 62 50 48 48 45 39 44 39 38 34 34 40 38 32 25 20 12 7 3 353 354 358 356 345 337 323 337 337 336 333 337 345 344 350 352
61 71 57 66 74 70 60 54 53 49 48 44 44 40 37 33 32 28 21 27 28 22 20 26 31 29 32 29 24 9 13 9 1 353 344 342 344 350 341 338 343 345 345
82 82 78 65 62 56 55 52 49 43 37 38 36 32 32 35 25 38 43 43 49 27 26 35 35 36 38 33 30 25 21 20 13 9 351 353 344 338 332 328 334 329 338
79 91 64 58 53 46 35 30 29 37 35 23 25 20 17 21 29 36 49 56 42 27 24 24 17 12 11 20 31 35 26 18 12 16 355 347 347 342 336 335 340 344 342
89 78 62 48 35 19 18 20 18 25 33 28 37 26 9 4 13 31 42 37 35 18 3 354 357 359 5 357 351 3 2 356 7 12 3 2 356 349 338 343 342 341 340
71 60 49 37 36 4 348 16 43 51 64 60 41 16 6 11 20 11 17 32 26 16 11 13 13 12 13 13 14 11 11 2 345 352 355 356 351 352 353 344 349 347 337
69 47 22 33 24 43 39 22 11 12 10 22 12 355 2 22 24 28 24 29 14 9 8 14 18 15 14 11 10 6 4 3 359 345 353 348 348 343 345 340 339 337 335
73 52 57 59 57 48 45 45 43 44 42 35 20 21 20 27 41 44 44 37 27 20 17 17 17 15 14 11 13 12 8 3 356 358 353 355 356 344 335 321 340 332 339
38 5 20 29 30 26 24 29 34 34 33 33 32 32 31 35 43 37 32 26 23 21 22 21 20 15 14 9 10 11 3 355 352 354 356 349 345 339 349 342 348 354 346
67 46 31 21 24 18 10 6 20 24 26 30 31 36 36 37 32 24 17 22 19 17 18 16 13 16 14 11 9 9 6 358 353 353 348 350 345 346 343 349 343 346 351
150 56 49 27 6 359 5 1 20 20 17 25 24 23 28 23 30 29 25 20 17 10 21 18 18 17 14 11 9 11 360 1 351 344 345 348 345 344 343 345 347 336 349
61 65 53 33 42 18 356 355 22 18 14 17 14 13 9 2 13 30 27 23 19 13 18 19 16 16 14 9 4 5 357 352 347 340 343 352 350 349 352 354 348 344 340
337 327 5 353 0 23 20 12 5 1 352 351 5 13 17 15 30 30 26 18 19 19 22 20 14 8 2 0 357 360 347 350 358 345 350 356 354 351 350 355 355 355 354
39 69 66 32 16 19 10 11 1 356 347 340 359 17 27 21 27 19 15 18 15 17 21 16 6 2 4 3 1 358 352 359 357 355 353 354 351 354 353 349 352 0 357
25 32 21 20 40 3 338 3 356 359 352 354 6 14 28 17 13 12 12 13 14 12 11 5 4 8 7 7 3 1 0 0 358 356 1 355 351 355 353 357 8 357 353
299 339 2 7 14 355 20 12 2 342 348 346 7 10 19 16 12 7 7 13 11 6 2 0 2 8 7 5 3 1 1 360 1 2 5 2 2 359 359 13 6 4 33
160 206 343 344 324 346 341 347 329 327 355 354 2 3 358 356 356 357 1 6 355 6 356 355 359 5 6 4 2 0 360 359 2 0 1 4 10 14 22 25 25 59 72
313 360 1 334 330 357 346 354 349 332 354 344 338 342 349 2 356 0 3 0 352 1 352 351 355 2 3 3 6 2 358 357 2 1 1 9 16 24 38 42 49 80 74
47 43 354 357 341 354 1 359 354 352 348 349 346 12 347 327 335 335 341 352 349 1 351 348 353 358 0 2 6 5 1 358 4 3 4 18 30 34 53 57 78 79 82
328 10 9 350 346 340 340 356 345 333 338 345 345 352 335 349 41 342 333 355 351 354 350 347 349 353 357 1 5 8 1 358 7 5 21 40 47 56 65 74 74 82 78
39 334 341 346 327 357 12 356 13 23 25 22 9 353 352 333 329 354 30 16 357 347 343 344 346 350 354 1 8 10 9 3 14 10 38 53 60 60 59 74 71 71 81
Height
1538 1534 1530 1527 1524 1521 1518 1515 1512 1509 1506 1503 1501 1499 1496 1493 1490 1487 1485 1483 1479 1478 1477 1475 1473 1471 1468 1466 1464 1462 1460 1458 1457 1456 1455 1452 1449 1446 1445 1442 1439 1437 1435
1537 1532 1529 1527 1524 1520 1518 1515 1513 1510 1507 1503 1500 1498 1495 1493 1490 1488 1485 1483 1480 1479 1477 1474 1471 1469 1467 1464 1462 1459 1457 1456 1455 1454 1452 1449 1447 1444 1442 1440 1437 1435 1432
1536 1532 1530 1526 1523 1520 1518 1516 1513 1510 1506 1503 1498 1494 1492 1491 1490 1487 1485 1483 1481 1479 1476 1473 1470 1467 1465 1463 1461 1459 1457 1456 1455 1453 1451 1448 1446 1443 1440 1438 1435 1432 1430
1535 1532 1530 1526 1523 1520 1519 1517 1514 1511 1508 1504 1499 1496 1494 1493 1490 1487 1486 1484 1482 1480 1478 1475 1472 1470 1467 1465 1463 1460 1458 1456 1455 1453 1451 1448 1446 1442 1439 1435 1431 1428 1425
1536 1533 1531 1528 1525 1523 1521 1519 1516 1514 1510 1507 1505 1502 1500 1497 1494 1492 1490 1488 1486 1484 1481 1477 1474 1472 1469 1466 1463 1461 1459 1457 1455 1452 1450 1447 1444 1441 1438 1434 1430 1426 1424
1538 1536 1534 1531 1529 1527 1525 1523 1520 1518 1515 1513 1510 1507 1505 1502 1500 1498 1494 1491 1489 1486 1483 1479 1474 1471 1468 1465 1463 1461 1459 1456 1453 1450 1448 1446 1443 1440 1437 1433 1429 1426 1422
1540 1538 1536 1534 1533 1531 1529 1526 1525 1522 1519 1517 1514 1512 1509 1506 1503 1499 1495 1493 1490 1489 1485 1480 1476 1472 1469 1466 1463 1461 1458 1456 1452 1449 1447 1445 1441 1439 1435 1432 1429 1426 1423
1541 1541 1539 1538 1537 1535 1532 1530 1528 1525 1523 1521 1518 1515 1512 1507 1504 1501 1497 1494 1493 1492 1488 1484 1480 1476 1472 1469 1465 1462 1459 1456 1453 1450 1447 1444 1441 1437 1434 1431 1428 1424 1421
1543 1543 1542 1541 1539 1537 1535 1533 1530 1528 1525 1522 1520 1517 1513 1510 1506 1503 1500 1497 1495 1493 1490 1487 1483 1479 1476 1472 1468 1464 1461 1458 1454 1450 1446 1443 1439 1436 1432 1428 1425 1421 1418
1546 1546 1545 1544 1542 1540 1537 1534 1531 1527 1525 1523 1522 1519 1515 1511 1508 1505 1502 1499 1497 1494 1492 1488 1485 1481 1476 1472 1469 1465 1461 1457 1453 1449 1446 1442 1438 1434 1430 1427 1423 1420 1418
1549 1548 1547 1545 1543 1541 1537 1535 1532 1529 1526 1525 1523 1520 1517 1513 1509 1507 1504 1501 1498 1496 1492 1488 1484 1481 1477 1473 1469 1464 1460 1456 1453 1449 1445 1441 1437 1432 1428 1424 1421 1419 1416
1550 1549 1547 1547 1544 1541 1538 1536 1534 1532 1529 1527 1524 1521 1518 1515 1511 1507 1505 1503 1501 1497 1492 1488 1485 1481 1477 1473 1468 1464 1460 1456 1452 1448 1443 1438 1433 1429 1426 1423 1420 1417 1415
1551 1551 1550 1548 1546 1544 1542 1539 1536 1533 1531 1528 1525 1522 1519 1516 1513 1510 1507 1504 1501 1497 1493 1490 1486 1482 1478 1473 1469 1464 1459 1455 1451 1447 1442 1437 1432 1428 1423 1420 1418 1415 1412
1552 1551 1550 1549 1547 1545 1543 1540 1538 1535 1533 1530 1527 1524 1520 1517 1515 1512 1509 1505 1502 1498 1495 1491 1487 1483 1479 1474 1469 1465 1460 1455 1450 1446 1441 1436 1431 1425 1421 1417 1414 1412 1409
1553 1552 1550 1549 1548 1546 1544 1541 1539 1537 1534 1532 1528 1525 1522 1519 1516 1514 1510 1507 1504 1500 1496 1492 1487 1482 1478 1474 1469 1465 1460 1454 1449 1444 1439 1433 1427 1423 1419 1416 1413 1410 1409
1553 1552 1551 1550 1547 1546 1544 1542 1540 1538 1536 1534 1531 1528 1525 1522 1519 1516 1513 1510 1506 1501 1497 1493 1488 1484 1479 1475 1470 1465 1460 1455 1449 1443 1437 1431 1425 1420 1417 1414 1412 1409 1407
1554 1553 1551 1550 1548 1546 1544 1543 1541 1539 1536 1534 1532 1529 1526 1523 1520 1517 1514 1511 1507 1503 1498 1494 1489 1485 1480 1475 1470 1465 1459 1454 1447 1441 1436 1429 1423 1419 1416 1413 1410 1408 1406
1553 1551 1551 1550 1548 1547 1545 1542 1540 1538 1535 1534 1532 1529 1526 1524 1521 1518 1515 1511 1507 1503 1499 1495 1490 1485 1480 1474 1469 1464 1458 1451 1445 1439 1434 1427 1421 1417 1414 1411 1409 1407 1405
1553 1551 1551 1550 1548 1547 1545 1544 1542 1539 1536 1534 1532 1530 1527 1525 1522 1519 1515 1511 1508 1504 1500 1495 1491 1485 1480 1474 1468 1463 1457 1450 1444 1437 1431 1424 1419 1416 1413 1410 1408 1406 1404
1552 1553 1551 1549 1548 1547 1545 1543 1541 1539 1536 1533 1532 1529 1527 1525 1522 1518 1515 1512 1508 1504 1500 1496 1491 1486 1481 1475 1468 1461 1455 1449 1442 1434 1427 1422 1418 1414 1411 1409 1407 1405 1404
1551 1550 1550 1549 1547 1546 1544 1542 1541 1538 1536 1533 1530 1528 1526 1523 1521 1518 1515 1511 1508 1505 1500 1496 1492 1487 1481 1475 1468 1461 1455 1449 1441 1433 1426 1421 1417 1413 1410 1408 1407 1405 1404
1551 1550 1549 1548 1547 1545 1544 1542 1539 1537 1534 1532 1530 1527 1525 1522 1519 1517 1515 1511 1508 1505 1500 1497 1493 1488 1482 1475 1468 1461 1454 1448 1441 1433 1426 1421 1416 1413 1411 1409 1407 1406 1406
1551 1550 1549 1548 1547 1545 1542 1541 1538 1536 1533 1531 1528 1526 1524 1522 1520 1516 1514 1511 1508 1505 1501 1497 1494 1489 1483 1477 1470 1462 1455 1449 1442 1434 1427 1421 1417 1414 1412 1411 1409 1409 1409
1550 1549 1548 1547 1546 1544 1542 1540 1537 1535 1532 1530 1527 1525 1523 1520 1517 1515 1514 1511 1508 1505 1501 1498 1494 1490 1484 1478 1471 1463 1457 1451 1443 1436 1428 1423 1419 1417 1415 1414 1413 1412 1412
1549 1549 1548 1546 1545 1543 1541 1539 1536 1533 1531 1528 1525 1523 1522 1520 1518 1514 1514 1511 1508 1506 1502 1498 1495 1491 1486 1480 1473 1465 1458 1452 1445 1437 1429 1426 1423 1420 1419 1418 1417 1417 1417
1549 1548 1547 1546 1543 1542 1540 1538 1535 1532 1529 1526 1524 1522 1520 1519 1516 1515 1512 1511 1510 1507 1502 1499 1496 1492 1488 1481 1474 1468 1461 1454 1448 1440 1434 1431 1428 1426 1425 1424 1423 1422 1421